Voltar ao catálogo

YINHE 2-01

AtivoComunicaçõesVLEO
NORAD 51946·PAYLOAD·🇨🇳 China
Este nome de satélite ainda não foi confirmado por fontes oficiais.

Lançado Mar 5, 2022 de Xichang Satellite Launch Center

Loading…

Próximas Passagens (próximas 24 horas)

TLE

AtualizadoSource: Space-Track

Época: Sep 14, 2026, 15:07 UTC

1 51946U 22023A   26257.63025787  .00008125  00000-0  34193-3 0  9993
2 51946  63.4788 326.7639 0118283 346.1146  13.6721 15.17895640251292

Acompanhe YINHE 2-01 em tempo real com AllMySat

Download on the App Store